Location: Newark
(23.3970°S, 47.6010°W)
Time: 18:30:10
(UTC+00:00)

deb Explorer IX - Pass Details

Date: 22 February 2020
Orbit: 547 x 1100 km, 38.8° (Epoch: 02 April)

Event Time Altitude Azimuth Distance (km) Brightness Sun altitude
Rises 06:44:53 0° 234° (SW) 3,916 - -30.4°
Reaches altitude 10° 06:47:50 10° 229° (SW) 2,932 - -29.8°
Exits shadow 06:50:41 24° 219° (SW) 2,032 ? -29.2°
Maximum altitude 06:54:50 52° 153° (SSE) 1,248 ? -28.4°
Drops below altitude 10° 07:01:07 10° 77° (ENE) 2,635 ? -27.1°
Sets 07:03:38 0° 72° (ENE) 3,492 ? -26.6°
